Location: Gudip?du
(17.0263°N, 80.8301°E)
Time: 12:24:48
(UTC+00:00)

GPS 2-12 Rocket1 - Pass Details

Date: 03 August 2024
Orbit: 572 x 630 km, 20.0° (Epoch: 12 September)

Event Time Altitude Azimuth Distance (km) Brightness Sun altitude
Rises 15:16:37 0° 278° (W) 2,907 7.5 -28.7°
Reaches altitude 10° 15:19:01 10° 282° (WNW) 1,997 6.5 -29.2°
Enters shadow 15:22:17 41° 304° (NW) 902 4.2 -29.9°
